TimeEST,TemperatureF,Dew PointF,Humidity,Sea Level PressureIn,VisibilityMPH,Wind Direction,Wind SpeedMPH,Gust SpeedMPH,PrecipitationIn,Events,Conditions,WindDirDegrees,DateUTC
12:15 AM,31.6,25.5,78,29.64,10.0,ENE,8.1,-,N/A,,Overcast,70,2013-02-28 05:15:00
12:35 AM,31.6,25.7,79,29.63,10.0,East,8.1,-,N/A,,Overcast,80,2013-02-28 05:35:00
12:55 AM,31.6,25.5,78,29.63,10.0,East,8.1,-,N/A,,Overcast,80,2013-02-28 05:55:00
1:15 AM,31.8,25.5,78,29.62,10.0,East,6.9,-,N/A,,Overcast,80,2013-02-28 06:15:00
1:35 AM,31.8,25.3,77,29.61,10.0,ENE,8.1,-,N/A,,Overcast,70,2013-02-28 06:35:00
1:55 AM,31.5,25.5,79,29.60,10.0,NE,4.6,-,N/A,,Overcast,40,2013-02-28 06:55:00
2:15 AM,31.6,25.2,77,29.59,10.0,ENE,5.8,-,N/A,,Overcast,70,2013-02-28 07:15:00
2:35 AM,31.6,25.0,76,29.59,10.0,ENE,4.6,-,N/A,,Overcast,60,2013-02-28 07:35:00
2:55 AM,31.5,25.3,78,29.58,7.0,ENE,4.6,-,N/A,Snow,Light Snow,70,2013-02-28 07:55:00
3:15 AM,31.5,25.3,78,29.57,10.0,ENE,4.6,-,N/A,Snow,Light Snow,70,2013-02-28 08:15:00
3:35 AM,31.5,25.2,78,29.57,10.0,NE,3.5,-,N/A,Snow,Light Snow,50,2013-02-28 08:35:00
3:55 AM,31.3,25.2,78,29.56,10.0,NNE,3.5,-,N/A,,Overcast,30,2013-02-28 08:55:00
4:15 AM,31.1,25.3,79,29.56,10.0,North,4.6,-,N/A,,Overcast,10,2013-02-28 09:15:00
4:35 AM,30.7,25.7,82,29.56,10.0,NNE,4.6,-,N/A,,Overcast,30,2013-02-28 09:35:00
4:55 AM,30.7,25.7,82,29.57,7.0,North,4.6,-,N/A,Snow,Light Snow,360,2013-02-28 09:55:00
5:15 AM,30.2,26.1,85,29.57,10.0,North,3.5,-,N/A,,Overcast,360,2013-02-28 10:15:00
5:35 AM,30.0,26.2,86,29.57,10.0,Calm,Calm,-,N/A,,Overcast,0,2013-02-28 10:35:00
5:55 AM,29.8,26.4,87,29.57,10.0,Calm,Calm,-,N/A,,Overcast,0,2013-02-28 10:55:00
6:15 AM,29.8,27.0,89,29.57,10.0,Calm,Calm,-,N/A,,Overcast,0,2013-02-28 11:15:00
6:35 AM,30.0,27.0,88,29.57,10.0,Calm,Calm,-,N/A,,Overcast,0,2013-02-28 11:35:00
6:55 AM,29.8,27.0,89,29.58,10.0,Calm,Calm,-,N/A,,Overcast,0,2013-02-28 11:55:00
7:15 AM,29.8,27.0,89,29.58,10.0,SSW,3.5,-,N/A,,Overcast,210,2013-02-28 12:15:00
7:35 AM,30.2,27.1,88,29.59,10.0,Calm,Calm,-,N/A,,Overcast,0,2013-02-28 12:35:00
7:55 AM,30.6,27.1,87,29.59,10.0,Calm,Calm,-,N/A,,Overcast,0,2013-02-28 12:55:00
8:15 AM,30.7,27.3,87,29.59,10.0,Calm,Calm,-,N/A,,Overcast,0,2013-02-28 13:15:00
8:35 AM,31.1,27.1,85,29.59,10.0,Calm,Calm,-,N/A,,Overcast,0,2013-02-28 13:35:00
8:55 AM,30.9,27.1,86,29.59,10.0,Calm,Calm,-,N/A,,Overcast,0,2013-02-28 13:55:00
9:15 AM,32.0,27.3,83,29.59,10.0,Calm,Calm,-,N/A,,Overcast,0,2013-02-28 14:15:00
9:35 AM,32.0,27.3,83,29.58,10.0,Calm,Calm,-,N/A,,Overcast,0,2013-02-28 14:35:00
9:55 AM,32.2,27.9,84,29.59,10.0,Calm,Calm,-,N/A,,Mostly Cloudy,0,2013-02-28 14:55:00
10:15 AM,33.4,27.5,79,29.58,10.0,Calm,Calm,-,N/A,,Scattered Clouds,0,2013-02-28 15:15:00
10:35 AM,33.1,27.5,80,29.58,10.0,Calm,Calm,-,N/A,,Scattered Clouds,0,2013-02-28 15:35:00
10:55 AM,34.9,27.3,74,29.58,10.0,Calm,Calm,-,N/A,,Scattered Clouds,0,2013-02-28 15:55:00
11:15 AM,36.3,27.5,70,29.58,10.0,Calm,Calm,-,N/A,,Scattered Clouds,0,2013-02-28 16:15:00
11:35 AM,36.5,27.9,71,29.58,10.0,Calm,Calm,-,N/A,,Scattered Clouds,0,2013-02-28 16:35:00
11:55 AM,37.6,28.2,69,29.58,10.0,SW,3.5,-,N/A,,Scattered Clouds,230,2013-02-28 16:55:00
12:15 PM,37.8,28.4,69,29.57,10.0,SSW,3.5,-,N/A,,Mostly Cloudy,200,2013-02-28 17:15:00
12:35 PM,38.5,28.4,67,29.57,10.0,Calm,Calm,-,N/A,,Overcast,0,2013-02-28 17:35:00
12:55 PM,38.1,28.2,68,29.57,10.0,Calm,Calm,-,N/A,,Overcast,0,2013-02-28 17:55:00
1:35 PM,38.3,27.9,66,29.57,10.0,Calm,Calm,-,N/A,,Scattered Clouds,0,2013-02-28 18:35:00
1:55 PM,40.3,27.7,61,29.57,10.0,Calm,Calm,-,N/A,,Scattered Clouds,0,2013-02-28 18:55:00
2:15 PM,39.4,28.2,64,29.56,10.0,North,5.8,-,N/A,,Mostly Cloudy,360,2013-02-28 19:15:00
2:35 PM,38.7,28.2,66,29.56,10.0,NNW,5.8,-,N/A,,Overcast,330,2013-02-28 19:35:00
2:55 PM,38.7,28.4,67,29.56,10.0,North,8.1,-,N/A,,Mostly Cloudy,360,2013-02-28 19:55:00
3:15 PM,37.8,27.7,67,29.55,10.0,North,6.9,-,N/A,,Scattered Clouds,360,2013-02-28 20:15:00
3:35 PM,37.8,28.0,68,29.55,10.0,North,6.9,-,N/A,,Mostly Cloudy,360,2013-02-28 20:35:00
3:55 PM,37.6,28.0,68,29.56,10.0,North,8.1,-,N/A,,Overcast,350,2013-02-28 20:55:00
4:15 PM,37.2,28.4,70,29.56,10.0,North,8.1,-,N/A,,Overcast,350,2013-02-28 21:15:00
4:35 PM,37.0,28.8,72,29.56,10.0,NNW,4.6,-,N/A,,Overcast,340,2013-02-28 21:35:00
4:55 PM,37.2,28.4,70,29.55,10.0,NNW,6.9,-,N/A,,Overcast,330,2013-02-28 21:55:00
5:15 PM,37.0,28.4,71,29.56,10.0,NNW,5.8,-,N/A,,Overcast,340,2013-02-28 22:15:00
5:35 PM,36.5,28.8,74,29.57,10.0,NNW,5.8,-,N/A,,Overcast,340,2013-02-28 22:35:00
5:55 PM,36.3,28.9,75,29.57,10.0,NNW,5.8,-,N/A,,Overcast,330,2013-02-28 22:55:00
6:15 PM,35.8,29.1,77,29.57,10.0,North,5.8,-,N/A,,Overcast,350,2013-02-28 23:15:00
6:35 PM,35.8,29.3,77,29.58,10.0,North,5.8,-,N/A,,Overcast,350,2013-02-28 23:35:00
6:55 PM,35.8,29.3,77,29.58,10.0,North,9.2,-,N/A,,Overcast,360,2013-02-28 23:55:00
7:15 PM,35.2,29.7,80,29.58,10.0,North,9.2,-,N/A,,Overcast,360,2013-03-01 00:15:00
7:35 PM,34.5,30.0,84,29.58,10.0,North,9.2,-,N/A,,Light Drizzle,360,2013-03-01 00:35:00
7:55 PM,33.8,30.7,89,29.58,10.0,North,11.5,-,N/A,,Light Drizzle,350,2013-03-01 00:55:00
8:15 PM,33.3,30.9,91,29.58,10.0,North,9.2,-,N/A,,Light Drizzle,360,2013-03-01 01:15:00
8:35 PM,32.9,30.9,92,29.58,10.0,NNW,5.8,-,N/A,Rain,Light Rain,340,2013-03-01 01:35:00
8:55 PM,32.9,30.7,92,29.58,10.0,NNW,5.8,-,N/A,,Overcast,340,2013-03-01 01:55:00
9:15 PM,32.9,30.7,92,29.58,7.0,Calm,Calm,-,N/A,,Overcast,0,2013-03-01 02:15:00
9:35 PM,32.9,30.7,92,29.59,7.0,NNW,3.5,-,N/A,,Overcast,330,2013-03-01 02:35:00
9:55 PM,32.7,30.4,91,29.58,7.0,North,3.5,-,N/A,,Overcast,360,2013-03-01 02:55:00
10:15 PM,32.5,30.2,91,29.58,7.0,North,8.1,-,N/A,Snow,Light Snow,350,2013-03-01 03:15:00
10:35 PM,32.0,30.0,92,29.58,7.0,North,8.1,-,N/A,,Overcast,350,2013-03-01 03:35:00
10:55 PM,32.0,29.7,91,29.58,10.0,North,8.1,-,N/A,,Overcast,350,2013-03-01 03:55:00
11:15 PM,32.0,29.3,90,29.57,7.0,North,8.1,-,N/A,Snow,Light Snow,360,2013-03-01 04:15:00
11:35 PM,31.8,29.3,90,29.57,7.0,North,6.9,-,N/A,,Overcast,360,2013-03-01 04:35:00
11:55 PM,31.6,29.3,91,29.57,7.0,North,5.8,-,N/A,,Overcast,360,2013-03-01 04:55:00